User: anonymous   Login
Location: Unspecified
(0.0000°N, 0.0000°E)
Time: 01:46:45
(UTC+00:00)
Language:

IGS RADAR-5 - Orbit

View from above orbital plane
View from above orbital plane
View from above satellite
View from above satellite

Ground track
Ground track

The orbit data is extracted from the following two-line orbital elements,

1 42072U 17015A   18146.86209918 0.00000000  00000-0  00000-0 0    05
2 42072  97.3698 218.2148 0002000 352.5727   7.4272 15.25980500    05
Epoch (UTC): 26 May 2018 20:41:25
Eccentricity: 0.0002000
inclination: 97.3698°
perigee height: 486 km
apogee height: 489 km
right ascension of ascending node: 218.2148°
argument of perigee: 352.5727°
revolutions per day: 15.25980500
mean anomaly at epoch: 7.4272°
orbit number at epoch: 0

The dashed part of the orbit path shows where the satellite is in the earth's shadow,  

DLR